This is the latest recevied weather packets stored in our database for station/object K9YK-13. If no packets are shown the sender has not sent any weather packets the latest 1 day(s).
| Time | Temp. | Humidity | Pressure | Rain* | Wind** | Luminosity | Snow |
|---|---|---|---|---|---|---|---|
| 1778043969 | 7.78° C | 84% | 0 hPa | 0 mm | 0 m/s | - | - |
| 1778043669 | 9.44° C | 88% | 0 hPa | 0 mm | 0 m/s | - | - |
| 1778043369 | 9.44° C | 91% | 0 hPa | 0 mm | 0 m/s | - | - |
| 1778043069 | 9.44° C | 93% | 0 hPa | 0 mm | 0 m/s | - | - |
| 1778042769 | 8.89° C | 95% | 0 hPa | 0 mm | 0 m/s | - | - |
| 1778042469 | 8.33° C | 96% | 0 hPa | 0 mm | 0 m/s | - | - |
| 1778042169 | 10° C | 96% | 0 hPa | 0 mm | 0 m/s | - | - |
| 1778041869 | 8.89° C | 97% | 0 hPa | 0 mm | 0 m/s | - | - |
| 1778041569 | 10° C | 97% | 0 hPa | 0 mm | 0 m/s | - | - |
| 1778041269 | 10° C | 97% | 0 hPa | 0 mm | 0 m/s | - | - |
| 1778040969 | 9.44° C | 97% | 0 hPa | 0 mm | 0 m/s | - | - |
| 1778040669 | 9.44° C | 97% | 0 hPa | 0 mm | 0 m/s | - | - |
| 1778040369 | 10° C | 97% | 0 hPa | 0 mm | 0 m/s | - | - |
| 1778040069 | 8.89° C | 97% | 0 hPa | 0 mm | 0 m/s | - | - |
| 1778039769 | 9.44° C | 97% | 0 hPa | 0 mm | 0 m/s | - | - |
| 1778039469 | 10° C | 97% | 0 hPa | 0 mm | 0 m/s | - | - |
| 1778039169 | 9.44° C | 97% | 0 hPa | 0 mm | 0 m/s | - | - |
| 1778038869 | 10° C | 97% | 0 hPa | 0 mm | 0 m/s | - | - |
| 1778038569 | 10° C | 97% | 0 hPa | 0 mm | 0 m/s | - | - |
| 1778038269 | 10° C | 97% | 0 hPa | 0 mm | 0 m/s | - | - |
| 1778037969 | 10° C | 97% | 0 hPa | 0 mm | 0 m/s | - | - |
| 1778037669 | 10.56° C | 97% | 0 hPa | 0 mm | 0 m/s | - | - |
| 1778037369 | 9.44° C | 97% | 0 hPa | 0 mm | 0 m/s | - | - |
| 1778037069 | 9.44° C | 97% | 0 hPa | 0 mm | 0 m/s | - | - |
| 1778036769 | 10° C | 96% | 0 hPa | 0 mm | 0 m/s | - | - |
* Rain latest hour (hover to see other rain measurements)
** Current wind speed in m/s (hover to see current wind gust speed)